Weather History for KLVS - July, 2014

Change the Weather History Date:

Thursday, July 10, 2014

  Actual Average Record
Temperature  
Mean Temperature 70 °F -  
Max Temperature 82 °F 83 °F 95 °F (1958)
Min Temperature 57 °F 54 °F 48 °F (1962)
Cooling Degree Days 4    
Growing Degree Days 20 (Base 50)    
Moisture  
Dew Point 49 °F    
Average Humidity 48    
Maximum Humidity 72    
Minimum Humidity 28    
Precipitation  
Precipitation 0.00 in - - ()
Sea Level Pressure  
Sea Level Pressure 29.94 in    
Wind  
Wind Speed 9 mph (SSW)    
Max Wind Speed 25 mph    
Max Gust Speed 33 mph    
Visibility 10 miles    
Events Thunderstorm    
Averages and records for this station are not official NWS values.
T = Trace of Precipitation, MM = Missing Value Source: NWS Daily Summary

Daily Weather History Graph

Daily Weather History Graph

Search for Another Location

Airport or City:

Trip Planner

Search our weather history database for the weather conditions in past years. The results will help you decide how hot, cold, wet, or windy it might be!

Date:

Astronomy

Jul. 10, 2014 Rise Set
Actual Time 5:53 AM MDT 8:18 PM MDT
Civil Twilight 5:23 AM MDT 8:48 PM MDT
Nautical Twilight 4:47 AM MDT 9:24 PM MDT
Astronomical Twilight 4:07 AM MDT 10:04 PM MDT
Moon 6:35 PM MDT (7/10) 4:05 AM MDT (7/10)
Length of Visible Light 15h 24m
Length of Day
14h 25m
Waxing Gibbous, 96% of the Moon is Illuminated
Jul 10
Waxing Gibbous
Jul 12
Full
Jul 18
Last Quarter
Jul 26
New
Aug 3
First Quarter

Hourly Weather History & Observations

Time (MDT) Temp. Dew Point Humidity Pressure Visibility Wind Dir Wind Speed Gust Speed Precip Events Conditions
12:53 AM 61.0 °F 51.1 °F 70% 29.96 in 10.0 mi West 5.8 mph - 0.00 in   Overcast
2:53 AM 59.0 °F 50.0 °F 72% 29.92 in 10.0 mi SSW 12.7 mph - N/A   Clear
4:53 AM 57.9 °F 48.0 °F 70% 29.91 in 10.0 mi WSW 8.1 mph - N/A   Clear
5:53 AM 57.9 °F 46.9 °F 67% 29.91 in 10.0 mi South 6.9 mph - N/A   Clear
7:53 AM 66.0 °F 51.1 °F 59% 29.92 in 10.0 mi SSW 9.2 mph - N/A   Clear
8:53 AM 70.0 °F 50.0 °F 49% 29.93 in 10.0 mi WNW 4.6 mph - N/A   Clear
9:53 AM 73.9 °F 46.9 °F 38% 29.91 in 10.0 mi Variable 3.5 mph - N/A   Clear
10:53 AM 77.0 °F 46.0 °F 33% 29.91 in 10.0 mi Variable 3.5 mph - N/A   Mostly Cloudy
11:53 AM 80.1 °F 46.9 °F 31% 29.87 in 10.0 mi Variable 5.8 mph - N/A   Scattered Clouds
12:53 PM 79.0 °F 46.0 °F 31% 29.86 in 10.0 mi South 9.2 mph - N/A Thunderstorm Scattered Clouds
1:26 PM 82.0 °F 46.9 °F 29% 30.20 in 10.0 mi Variable 6.9 mph 20.7 mph N/A Thunderstorm Mostly Cloudy
1:41 PM 79.0 °F 46.0 °F 31% 30.19 in 10.0 mi South 11.5 mph 19.6 mph N/A   Mostly Cloudy
1:53 PM 79.0 °F 46.0 °F 31% 29.85 in 10.0 mi SSW 9.2 mph 19.6 mph N/A   Mostly Cloudy
2:53 PM 81.0 °F 45.0 °F 28% 29.83 in 10.0 mi SSW 12.7 mph 20.7 mph N/A   Overcast
3:34 PM 80.1 °F 44.1 °F 28% 30.17 in 10.0 mi SSW 17.3 mph 21.9 mph N/A Thunderstorm Overcast
3:53 PM 77.0 °F 50.0 °F 39% 29.84 in 10.0 mi SSE 25.3 mph 33.4 mph N/A Thunderstorm Overcast
4:32 PM 73.0 °F 51.1 °F 46% 30.19 in 10.0 mi West 10.4 mph - N/A   Overcast
4:53 PM 72.0 °F 52.0 °F 49% 29.89 in 10.0 mi WSW 12.7 mph - N/A   Mostly Cloudy
5:53 PM 73.0 °F 51.1 °F 46% 29.87 in 10.0 mi SSW 13.8 mph - 0.00 in   Overcast
6:53 PM 73.0 °F 52.0 °F 48% 29.88 in 10.0 mi SW 9.2 mph - N/A   Clear
7:53 PM 69.1 °F 51.1 °F 53% 29.88 in 10.0 mi WSW 6.9 mph - N/A   Clear
8:53 PM 66.0 °F 52.0 °F 60% 29.88 in 10.0 mi SW 9.2 mph - N/A   Clear
9:53 PM 64.0 °F 51.1 °F 63% 29.90 in 10.0 mi South 9.2 mph - N/A   Clear
10:53 PM 62.1 °F 50.0 °F 65% 29.91 in 10.0 mi South 9.2 mph - N/A   Clear
11:53 PM 60.1 °F 50.0 °F 69% 29.91 in 10.0 mi South 9.2 mph - N/A   Clear